Time,TemperatureF,DewpointF,PressureIn,WindDirection,WindDirectionDegrees,WindSpeedMPH,WindSpeedGustMPH,Humidity,HourlyPrecipIn,Conditions,Clouds,dailyrainin,SoftwareType,DateUTC
2013-10-09 00:06:00,55.8,49.0,30.20,ENE,62,2.0,4.0,78,0.00,,,0.00,weatherlink.com 1.10,2013-10-09 04:06:00,
2013-10-09 00:21:00,55.6,50.0,30.19,NE,37,1.0,3.0,80,0.00,,,0.00,weatherlink.com 1.10,2013-10-09 04:21:00,
2013-10-09 00:36:00,55.5,49.0,30.19,ESE,105,0.0,4.0,80,0.00,,,0.00,weatherlink.com 1.10,2013-10-09 04:36:00,
2013-10-09 00:51:00,55.3,49.0,30.18,ENE,67,0.0,5.0,79,0.00,,,0.00,weatherlink.com 1.10,2013-10-09 04:51:00,
2013-10-09 01:06:00,54.9,49.0,30.18,East,85,0.0,3.0,80,0.00,,,0.00,weatherlink.com 1.10,2013-10-09 05:06:00,
2013-10-09 01:21:00,54.7,49.0,30.18,North,8,3.0,4.0,81,0.00,,,0.00,weatherlink.com 1.10,2013-10-09 05:21:00,
2013-10-09 01:36:00,54.6,49.0,30.18,East,98,1.0,7.0,82,0.00,,,0.00,weatherlink.com 1.10,2013-10-09 05:36:00,
2013-10-09 01:51:00,54.2,49.0,30.18,East,92,3.0,4.0,82,0.00,,,0.00,weatherlink.com 1.10,2013-10-09 05:51:00,
2013-10-09 02:06:00,54.1,48.0,30.18,North,4,0.0,3.0,81,0.00,,,0.00,weatherlink.com 1.10,2013-10-09 06:06:00,
2013-10-09 02:21:00,53.9,48.0,30.18,NE,49,0.0,2.0,80,0.00,,,0.00,weatherlink.com 1.10,2013-10-09 06:21:00,
2013-10-09 02:36:00,53.7,47.0,30.18,ENE,66,0.0,2.0,79,0.00,,,0.00,weatherlink.com 1.10,2013-10-09 06:36:00,
2013-10-09 02:51:00,53.2,48.0,30.18,East,83,0.0,3.0,82,0.00,,,0.00,weatherlink.com 1.10,2013-10-09 06:51:00,
2013-10-09 03:06:00,52.4,47.0,30.18,ESE,119,1.0,2.0,82,0.00,,,0.00,weatherlink.com 1.10,2013-10-09 07:06:00,
2013-10-09 03:21:00,51.9,47.0,30.18,ESE,119,0.0,1.0,83,0.00,,,0.00,weatherlink.com 1.10,2013-10-09 07:21:00,
2013-10-09 03:36:00,51.7,46.0,30.18,NE,52,1.0,2.0,82,0.00,,,0.00,weatherlink.com 1.10,2013-10-09 07:36:00,
2013-10-09 03:51:00,51.5,46.0,30.18,NE,52,0.0,2.0,82,0.00,,,0.00,weatherlink.com 1.10,2013-10-09 07:51:00,
2013-10-09 04:06:00,51.5,46.0,30.18,ENE,60,0.0,4.0,82,0.00,,,0.00,weatherlink.com 1.10,2013-10-09 08:06:00,
2013-10-09 04:21:00,51.3,46.0,30.19,ENE,60,0.0,0.0,82,0.00,,,0.00,weatherlink.com 1.10,2013-10-09 08:21:00,
2013-10-09 04:36:00,51.0,46.0,30.19,ENE,60,0.0,1.0,83,0.00,,,0.00,weatherlink.com 1.10,2013-10-09 08:36:00,
2013-10-09 04:51:00,50.8,46.0,30.19,ENE,60,0.0,1.0,83,0.00,,,0.00,weatherlink.com 1.10,2013-10-09 08:51:00,
2013-10-09 05:07:00,50.5,46.0,30.19,ENE,60,0.0,1.0,83,0.00,,,0.00,weatherlink.com 1.10,2013-10-09 09:07:00,
2013-10-09 05:22:00,50.1,46.0,30.19,ENE,60,0.0,0.0,84,0.00,,,0.00,weatherlink.com 1.10,2013-10-09 09:22:00,
2013-10-09 05:37:00,49.9,46.0,30.20,ENE,60,0.0,0.0,87,0.00,,,0.00,weatherlink.com 1.10,2013-10-09 09:37:00,
2013-10-09 05:52:00,49.2,46.0,30.20,ENE,60,0.0,1.0,88,0.00,,,0.00,weatherlink.com 1.10,2013-10-09 09:52:00,
2013-10-09 06:07:00,48.6,45.0,30.19,ENE,60,0.0,1.0,88,0.00,,,0.00,weatherlink.com 1.10,2013-10-09 10:07:00,
2013-10-09 06:22:00,48.3,45.0,30.20,ENE,60,0.0,1.0,89,0.00,,,0.00,weatherlink.com 1.10,2013-10-09 10:22:00,
2013-10-09 06:37:00,48.5,45.0,30.19,SSE,156,0.0,1.0,88,0.00,,,0.00,weatherlink.com 1.10,2013-10-09 10:37:00,
2013-10-09 06:52:00,49.4,45.0,30.20,NE,37,0.0,3.0,84,0.00,,,0.00,weatherlink.com 1.10,2013-10-09 10:52:00,
2013-10-09 07:07:00,50.0,45.0,30.20,NE,37,0.0,1.0,84,0.00,,,0.00,weatherlink.com 1.10,2013-10-09 11:07:00,
2013-10-09 07:22:00,50.1,45.0,30.19,East,100,0.0,1.0,83,0.00,,,0.00,weatherlink.com 1.10,2013-10-09 11:22:00,
2013-10-09 07:37:00,49.7,45.0,30.19,East,101,0.0,1.0,83,0.00,,,0.00,weatherlink.com 1.10,2013-10-09 11:37:00,
2013-10-09 07:52:00,49.8,45.0,30.20,East,100,0.0,2.0,83,0.00,,,0.00,weatherlink.com 1.10,2013-10-09 11:52:00,
2013-10-09 08:07:00,50.0,45.0,30.20,East,97,0.0,1.0,83,0.00,,,0.00,weatherlink.com 1.10,2013-10-09 12:07:00,
2013-10-09 08:22:00,51.6,46.0,30.21,East,95,0.0,1.0,81,0.00,,,0.00,weatherlink.com 1.10,2013-10-09 12:22:00,
2013-10-09 08:37:00,53.3,47.0,30.21,East,95,0.0,1.0,80,0.00,,,0.00,weatherlink.com 1.10,2013-10-09 12:37:00,
2013-10-09 08:52:00,54.1,47.0,30.21,East,95,0.0,2.0,78,0.00,,,0.00,weatherlink.com 1.10,2013-10-09 12:52:00,
2013-10-09 09:07:00,55.8,48.0,30.22,ENE,73,0.0,1.0,75,0.00,,,0.00,weatherlink.com 1.10,2013-10-09 13:07:00,
2013-10-09 09:22:00,57.3,48.0,30.23,SSE,148,0.0,3.0,71,0.00,,,0.00,weatherlink.com 1.10,2013-10-09 13:22:00,
2013-10-09 09:37:00,58.0,48.0,30.23,NW,312,0.0,3.0,70,0.00,,,0.00,weatherlink.com 1.10,2013-10-09 13:37:00,
2013-10-09 09:52:00,58.8,48.0,30.23,ENE,58,3.0,4.0,67,0.00,,,0.00,weatherlink.com 1.10,2013-10-09 13:52:00,
2013-10-09 10:07:00,59.2,47.0,30.24,ENE,57,3.0,8.0,64,0.00,,,0.00,weatherlink.com 1.10,2013-10-09 14:07:00,
2013-10-09 10:22:00,59.6,45.0,30.23,North,8,2.0,10.0,60,0.00,,,0.00,weatherlink.com 1.10,2013-10-09 14:22:00,
2013-10-09 10:37:00,60.7,46.0,30.23,WNW,293,3.0,9.0,59,0.00,,,0.00,weatherlink.com 1.10,2013-10-09 14:37:00,
2013-10-09 10:52:00,61.1,46.0,30.23,East,99,2.0,10.0,57,0.00,,,0.00,weatherlink.com 1.10,2013-10-09 14:52:00,
2013-10-09 11:08:00,61.7,45.0,30.23,North,349,5.0,12.0,54,0.00,,,0.00,weatherlink.com 1.10,2013-10-09 15:08:00,
2013-10-09 11:23:00,62.5,45.0,30.23,ENE,60,2.0,13.0,53,0.00,,,0.00,weatherlink.com 1.10,2013-10-09 15:23:00,
2013-10-09 11:38:00,63.3,46.0,30.22,NNE,24,1.0,9.0,54,0.00,,,0.00,weatherlink.com 1.10,2013-10-09 15:38:00,
2013-10-09 11:53:00,63.8,45.0,30.22,ENE,61,5.0,10.0,51,0.00,,,0.00,weatherlink.com 1.10,2013-10-09 15:53:00,
2013-10-09 12:08:00,65.0,46.0,30.21,North,8,3.0,8.0,50,0.00,,,0.00,weatherlink.com 1.10,2013-10-09 16:08:00,
2013-10-09 12:23:00,65.7,45.0,30.21,NE,37,8.0,10.0,48,0.00,,,0.00,weatherlink.com 1.10,2013-10-09 16:23:00,
2013-10-09 12:38:00,65.9,45.0,30.20,ENE,77,7.0,8.0,48,0.00,,,0.00,weatherlink.com 1.10,2013-10-09 16:38:00,
2013-10-09 12:53:00,66.9,44.0,30.19,North,4,3.0,10.0,43,0.00,,,0.00,weatherlink.com 1.10,2013-10-09 16:53:00,
2013-10-09 13:08:00,68.3,46.0,30.18,North,354,2.0,6.0,45,0.00,,,0.00,weatherlink.com 1.10,2013-10-09 17:08:00,
2013-10-09 13:23:00,69.0,45.0,30.18,ENE,62,0.0,7.0,43,0.00,,,0.00,weatherlink.com 1.10,2013-10-09 17:23:00,
2013-10-09 13:38:00,69.6,43.0,30.17,ENE,70,1.0,9.0,39,0.00,,,0.00,weatherlink.com 1.10,2013-10-09 17:38:00,
2013-10-09 13:53:00,69.9,45.0,30.16,NW,316,0.0,5.0,41,0.00,,,0.00,weatherlink.com 1.10,2013-10-09 17:53:00,
2013-10-09 14:08:00,70.0,44.0,30.15,SE,131,0.0,8.0,40,0.00,,,0.00,weatherlink.com 1.10,2013-10-09 18:08:00,
2013-10-09 14:23:00,71.0,45.0,30.14,ESE,107,1.0,7.0,40,0.00,,,0.00,weatherlink.com 1.10,2013-10-09 18:23:00,
2013-10-09 14:38:00,71.8,45.0,30.14,ESE,118,3.0,7.0,39,0.00,,,0.00,weatherlink.com 1.10,2013-10-09 18:38:00,
2013-10-09 14:53:00,72.4,45.0,30.13,NNE,23,3.0,7.0,37,0.00,,,0.00,weatherlink.com 1.10,2013-10-09 18:53:00,
2013-10-09 15:08:00,72.3,44.0,30.13,ESE,113,4.0,7.0,36,0.00,,,0.00,weatherlink.com 1.10,2013-10-09 19:08:00,
2013-10-09 15:23:00,73.3,45.0,30.12,ENE,59,5.0,6.0,36,0.00,,,0.00,weatherlink.com 1.10,2013-10-09 19:23:00,
2013-10-09 15:38:00,73.1,45.0,30.12,ESE,108,3.0,7.0,36,0.00,,,0.00,weatherlink.com 1.10,2013-10-09 19:38:00,
2013-10-09 15:53:00,73.1,44.0,30.12,North,9,4.0,8.0,35,0.00,,,0.00,weatherlink.com 1.10,2013-10-09 19:53:00,
2013-10-09 16:09:00,73.5,46.0,30.11,NNE,32,2.0,7.0,38,0.00,,,0.00,weatherlink.com 1.10,2013-10-09 20:09:00,
2013-10-09 16:23:00,73.9,47.0,30.11,East,79,0.0,4.0,38,0.00,,,0.00,weatherlink.com 1.10,2013-10-09 20:23:00,
2013-10-09 16:38:00,74.4,47.0,30.11,NW,323,2.0,4.0,38,0.00,,,0.00,weatherlink.com 1.10,2013-10-09 20:38:00,
2013-10-09 16:53:00,74.4,47.0,30.11,NE,55,1.0,5.0,38,0.00,,,0.00,weatherlink.com 1.10,2013-10-09 20:53:00,
2013-10-09 17:09:00,74.8,48.0,30.10,NNW,343,0.0,4.0,39,0.00,,,0.00,weatherlink.com 1.10,2013-10-09 21:09:00,
2013-10-09 17:24:00,74.2,48.0,30.10,North,354,1.0,5.0,40,0.00,,,0.00,weatherlink.com 1.10,2013-10-09 21:24:00,
2013-10-09 17:39:00,74.0,48.0,30.09,East,79,0.0,2.0,40,0.00,,,0.00,weatherlink.com 1.10,2013-10-09 21:39:00,
2013-10-09 17:54:00,73.1,49.0,30.10,SE,143,2.0,3.0,42,0.00,,,0.00,weatherlink.com 1.10,2013-10-09 21:54:00,
2013-10-09 18:09:00,72.1,51.0,30.10,SE,143,0.0,2.0,48,0.00,,,0.00,weatherlink.com 1.10,2013-10-09 22:09:00,
2013-10-09 18:24:00,71.5,52.0,30.10,SE,143,0.0,0.0,50,0.00,,,0.00,weatherlink.com 1.10,2013-10-09 22:24:00,
2013-10-09 18:39:00,71.2,50.0,30.10,SE,143,1.0,1.0,48,0.00,,,0.00,weatherlink.com 1.10,2013-10-09 22:39:00,
2013-10-09 18:54:00,69.2,50.0,30.10,SE,143,1.0,2.0,50,0.00,,,0.00,weatherlink.com 1.10,2013-10-09 22:54:00,
2013-10-09 19:09:00,66.5,52.0,30.10,SE,124,0.0,2.0,60,0.00,,,0.00,weatherlink.com 1.10,2013-10-09 23:09:00,
2013-10-09 19:24:00,63.9,52.0,30.11,NE,54,2.0,3.0,65,0.00,,,0.00,weatherlink.com 1.10,2013-10-09 23:24:00,
2013-10-09 19:39:00,61.8,52.0,30.11,NE,54,0.0,1.0,70,0.00,,,0.00,weatherlink.com 1.10,2013-10-09 23:39:00,
2013-10-09 19:54:00,60.2,51.0,30.12,ENE,63,0.0,3.0,72,0.00,,,0.00,weatherlink.com 1.10,2013-10-09 23:54:00,
2013-10-09 20:09:00,59.5,51.0,30.12,ENE,72,0.0,3.0,73,0.00,,,0.00,weatherlink.com 1.10,2013-10-10 00:09:00,
2013-10-09 20:24:00,57.8,51.0,30.12,East,81,0.0,3.0,79,0.00,,,0.00,weatherlink.com 1.10,2013-10-10 00:24:00,
2013-10-09 20:39:00,57.2,49.0,30.12,ENE,77,0.0,3.0,75,0.00,,,0.00,weatherlink.com 1.10,2013-10-10 00:39:00,
2013-10-09 20:54:00,57.6,48.0,30.12,ENE,70,2.0,4.0,70,0.00,,,0.00,weatherlink.com 1.10,2013-10-10 00:54:00,
2013-10-09 21:09:00,57.6,47.0,30.12,NNE,25,5.0,6.0,69,0.00,,,0.00,weatherlink.com 1.10,2013-10-10 01:09:00,
2013-10-09 21:24:00,57.6,48.0,30.13,NE,54,0.0,4.0,71,0.00,,,0.00,weatherlink.com 1.10,2013-10-10 01:24:00,
2013-10-09 21:39:00,56.6,49.0,30.13,NE,54,0.0,2.0,75,0.00,,,0.00,weatherlink.com 1.10,2013-10-10 01:39:00,
2013-10-09 21:54:00,55.8,49.0,30.13,ENE,60,1.0,3.0,78,0.00,,,0.00,weatherlink.com 1.10,2013-10-10 01:54:00,
2013-10-09 22:09:00,55.1,48.0,30.13,ENE,60,0.0,1.0,77,0.00,,,0.00,weatherlink.com 1.10,2013-10-10 02:09:00,
2013-10-09 22:24:00,55.4,49.0,30.13,ESE,105,0.0,3.0,78,0.00,,,0.00,weatherlink.com 1.10,2013-10-10 02:24:00,
2013-10-09 22:39:00,54.8,49.0,30.14,ESE,105,0.0,1.0,80,0.00,,,0.00,weatherlink.com 1.10,2013-10-10 02:39:00,
2013-10-09 22:54:00,53.9,49.0,30.13,ESE,105,1.0,1.0,82,0.00,,,0.00,weatherlink.com 1.10,2013-10-10 02:54:00,
2013-10-09 23:10:00,53.0,48.0,30.13,NE,56,0.0,2.0,83,0.00,,,0.00,weatherlink.com 1.10,2013-10-10 03:10:00,
2013-10-09 23:24:00,54.1,48.0,30.13,NNE,29,0.0,2.0,81,0.00,,,0.00,weatherlink.com 1.10,2013-10-10 03:24:00,
2013-10-09 23:39:00,54.1,48.0,30.13,ENE,57,0.0,2.0,81,0.00,,,0.00,weatherlink.com 1.10,2013-10-10 03:39:00,